Hourly Data Report for June 09, 2021

WESTERN HEAD
NOVA SCOTIA
Current Station Operator: ECCC - MSC

43°59'24.070" N
64°39'51.008" W
10.10 m
8206240
71411
WWE

Download Data

Hourly Data (June 2021)
Hourly Data Report for June 9, 2021
TIME
LST
Temp Definition
°C
Dew Point Definition
°C
Rel Hum Definition
%
Precip. Amount Definition
mm

Wind Dir Definition
10's deg

Wind Spd Definition
km/h
Visibility Definition
km
Stn Press Definition
kPa
Hmdx Definition


Wind Chill Definition


Weather Definition


00:00 11.1 LegendMM LegendMM 0.0 24 11   101.02     LegendNANA
01:00 12.1 LegendMM LegendMM 0.0 24 10   100.98     LegendNANA
02:00 10.5 LegendMM LegendMM 0.0 22 8   100.91     LegendNANA
03:00 13.5 LegendMM LegendMM 0.0 23 16   100.79     LegendNANA
04:00 22.3 22.3 100 0.0 27 26   100.83 32   LegendNANA
05:00 19.8 19.8 100 0.5 31 20   100.83     LegendNANA
06:00 20.2 LegendMM LegendMM 0.0 31 19   100.78     LegendNANA
07:00 15.8 LegendMM LegendMM 0.2 21 6   100.87     LegendNANA
08:00 14.2 LegendMM LegendMM 0.4 11 4   101.05     LegendNANA
09:00 12.8 LegendMM LegendMM 1.3 22 8   101.06     LegendNANA
10:00 13.6 LegendMM LegendMM 0.0 22 7   101.00     LegendNANA
11:00 16.0 LegendMM LegendMM 0.0 24 11   100.98     LegendNANA
12:00 17.2 LegendMM LegendMM 0.0 22 10   100.91     LegendNANA
13:00 12.9 LegendMM LegendMM 0.0 22 12   100.89     LegendNANA
14:00 14.7 14.7 100 0.0 21 10   100.83     LegendNANA
15:00 15.4 14.5 94 0.0 22 8   100.80     LegendNANA
16:00 27.0 20.2 66 0.0 27 16   100.76 35   LegendNANA
17:00 27.3 17.0 53 0.0 29 19   100.75 33   LegendNANA
18:00 25.7 16.9 58 0.0 29 17   100.76 31   LegendNANA
19:00 24.7 15.9 58 0.0 30 11   100.78 29   LegendNANA
20:00 20.7 14.0 65 0.0 29 10   100.81     LegendNANA
21:00 19.2 12.2 64 0.0 30 12   100.86     LegendNANA
22:00 17.9 9.9 59 0.0 31 12   100.91     LegendNANA
23:00 16.6 9.0 61 0.0 32 13   100.94     LegendNANA

Notes on Data Quality.

Legend

  • E = Estimated
  • M = Missing
  • NA = Not Available*
  • [empty] = Indicates an unobserved value
Date modified: